KLM809 WMKK-WIII

Flight info

Callsign KLM809
Flight time 1h 34m
Altitude 41000
Route MITOS1D MITOS M630 BOBAG P501 ANITO B470 BUNIK
Aircraft B789/H-SDE2E3GHIJ1J3J5P2RWXYZ/LD1B1

Departure

Time 2026-05-04 18:57
Airport Kuala Lumpur International Airport (WMKK)

Arrival

Time 2026-05-04 20:31
Airport Soekarno-Hatta International Airport (WIII)
Time Latitude Longitude Altitude Speed Heading
2026-05-04 18:10 2.74881 101.71639 78 ft 0 kts 326°
2026-05-04 18:49 2.74877 101.71641 67 ft 3 kts 326°
2026-05-04 18:49 2.74858 101.71654 75 ft 2 kts 326°
2026-05-04 18:49 2.74838 101.71667 67 ft 4 kts 331°
2026-05-04 18:49 2.74819 101.71673 78 ft 4 kts 44°
2026-05-04 18:50 2.74813 101.71653 68 ft 4 kts 83°
2026-05-04 18:50 2.74807 101.71631 78 ft 1 kts 56°
2026-05-04 18:50 2.74807 101.71630 69 ft 0 kts 56°
2026-05-04 18:51 2.74808 101.71632 69 ft 1 kts 56°
2026-05-04 18:52 2.74814 101.71641 78 ft 2 kts 56°
2026-05-04 18:52 2.74825 101.71657 70 ft 4 kts 56°
2026-05-04 18:52 2.74841 101.71681 67 ft 5 kts 56°
2026-05-04 18:52 2.74863 101.71713 78 ft 6 kts 56°
2026-05-04 18:53 2.74880 101.71738 69 ft 7 kts 56°
2026-05-04 18:53 2.74905 101.71778 80 ft 7 kts 65°
2026-05-04 18:53 2.74903 101.71813 84 ft 4 kts 115°
2026-05-04 18:53 2.74876 101.71837 82 ft 8 kts 144°
2026-05-04 18:54 2.74816 101.71879 84 ft 14 kts 145°
2026-05-04 18:54 2.74717 101.71944 81 ft 20 kts 146°
2026-05-04 18:54 2.74667 101.72009 86 ft 4 kts 80°
2026-05-04 18:54 2.74684 101.72037 88 ft 6 kts 46°
2026-05-04 18:55 2.74753 101.72076 85 ft 16 kts 40°
2026-05-04 18:55 2.74870 101.72186 88 ft 4 kts 336°
2026-05-04 18:55 2.74880 101.72179 89 ft 0 kts 324°
2026-05-04 18:56 2.74937 101.72138 85 ft 37 kts 326°
2026-05-04 18:56 2.75353 101.71859 83 ft 106 kts 326°
2026-05-04 18:56 2.76140 101.71329 84 ft 164 kts 326°
2026-05-04 18:57 2.77123 101.70672 663 ft 172 kts 329°
2026-05-04 18:57 2.78124 101.70008 1505 ft 175 kts 327°
2026-05-04 18:57 2.79182 101.69288 2021 ft 198 kts 327°
2026-05-04 18:57 2.80525 101.68726 1919 ft 225 kts 343°
2026-05-04 18:58 2.82114 101.68177 2043 ft 257 kts 340°
2026-05-04 18:58 2.83818 101.67545 2186 ft 270 kts 340°
2026-05-04 18:58 2.85534 101.66914 3464 ft 262 kts 340°
2026-05-04 18:58 2.87280 101.66286 4452 ft 270 kts 341°
2026-05-04 18:59 2.89094 101.65799 5460 ft 273 kts
2026-05-04 18:59 2.90950 101.66160 6437 ft 276 kts 26°
2026-05-04 18:59 2.92450 101.67353 7344 ft 280 kts 53°
2026-05-04 18:59 2.93353 101.69093 8190 ft 286 kts 65°
2026-05-04 19:00 2.94185 101.70910 9087 ft 289 kts 65°
2026-05-04 19:00 2.94754 101.72843 9897 ft 293 kts 89°
2026-05-04 19:00 2.94376 101.74876 10435 ft 311 kts 116°
2026-05-04 19:00 2.92975 101.76613 10657 ft 335 kts 139°
2026-05-04 19:01 2.91051 101.78099 10737 ft 362 kts 144°
2026-05-04 19:01 2.88975 101.79595 11313 ft 369 kts 142°
2026-05-04 19:01 2.86975 101.81165 12057 ft 371 kts 140°
2026-05-04 19:01 2.84969 101.82809 12740 ft 375 kts 140°
2026-05-04 19:02 2.82919 101.84446 13438 ft 379 kts 141°
2026-05-04 19:02 2.80829 101.86075 14119 ft 383 kts 141°
2026-05-04 19:02 2.78727 101.87727 14790 ft 386 kts 141°
2026-05-04 19:02 2.76611 101.89407 15433 ft 390 kts 141°
2026-05-04 19:03 2.74476 101.91101 16054 ft 394 kts 141°
2026-05-04 19:03 2.72317 101.92805 16649 ft 397 kts 141°
2026-05-04 19:03 2.70139 101.94524 17213 ft 400 kts 141°
2026-05-04 19:03 2.67946 101.96257 17752 ft 404 kts 141°
2026-05-04 19:04 2.65735 101.98005 18274 ft 407 kts 141°
2026-05-04 19:04 2.63507 101.99766 18780 ft 410 kts 141°
2026-05-04 19:04 2.61257 102.01543 19252 ft 413 kts 141°
2026-05-04 19:04 2.58993 102.03333 19717 ft 416 kts 141°
2026-05-04 19:05 2.56714 102.05134 20167 ft 420 kts 141°
2026-05-04 19:05 2.54407 102.06956 20596 ft 423 kts 141°
2026-05-04 19:05 2.52091 102.08785 21025 ft 426 kts 141°
2026-05-04 19:05 2.49759 102.10629 21414 ft 429 kts 141°
2026-05-04 19:06 2.47411 102.12484 21791 ft 432 kts 141°
2026-05-04 19:06 2.45048 102.14349 22157 ft 434 kts 141°
2026-05-04 19:06 2.42669 102.16228 22506 ft 437 kts 141°
2026-05-04 19:06 2.40277 102.18118 22849 ft 439 kts 141°
2026-05-04 19:07 2.37872 102.20019 23159 ft 442 kts 141°
2026-05-04 19:07 2.35453 102.21929 23473 ft 444 kts 141°
2026-05-04 19:07 2.33027 102.23844 23771 ft 447 kts 141°
2026-05-04 19:07 2.30617 102.25746 24061 ft 448 kts 141°
2026-05-04 19:08 2.28165 102.27684 24329 ft 451 kts 141°
2026-05-04 19:08 2.25698 102.29632 24720 ft 453 kts 141°
2026-05-04 19:08 2.23219 102.31589 25212 ft 455 kts 141°
2026-05-04 19:08 2.20724 102.33560 25654 ft 458 kts 141°
2026-05-04 19:09 2.18215 102.35541 26082 ft 461 kts 141°
2026-05-04 19:09 2.15687 102.37536 26501 ft 464 kts 141°
2026-05-04 19:09 2.13149 102.39539 26910 ft 466 kts 141°
2026-05-04 19:09 2.10596 102.41555 27298 ft 469 kts 141°
2026-05-04 19:10 2.08030 102.43580 27677 ft 471 kts 141°
2026-05-04 19:10 2.05445 102.45622 28040 ft 474 kts 141°
2026-05-04 19:10 2.02851 102.47669 28388 ft 476 kts 141°
2026-05-04 19:10 2.00244 102.49727 28733 ft 479 kts 141°
2026-05-04 19:11 1.97628 102.51791 29079 ft 481 kts 141°
2026-05-04 19:11 1.94993 102.53871 29405 ft 483 kts 141°
2026-05-04 19:11 1.92349 102.55958 29724 ft 485 kts 141°
2026-05-04 19:11 1.89694 102.58053 30042 ft 488 kts 141°
2026-05-04 19:12 1.87026 102.60157 30332 ft 490 kts 141°
2026-05-04 19:12 1.81655 102.64396 30878 ft 494 kts 141°
2026-05-04 19:12 1.78954 102.66527 31130 ft 496 kts 141°
2026-05-04 19:13 1.76279 102.68639 31380 ft 498 kts 141°
2026-05-04 19:13 1.73551 102.70791 31620 ft 500 kts 141°
2026-05-04 19:13 1.70819 102.72945 31874 ft 501 kts 141°
2026-05-04 19:13 1.68039 102.75139 32085 ft 503 kts 141°
2026-05-04 19:14 1.65290 102.77310 32275 ft 505 kts 141°
2026-05-04 19:14 1.62564 102.79459 32490 ft 506 kts 141°
2026-05-04 19:14 1.59797 102.81640 32745 ft 506 kts 141°
2026-05-04 19:14 1.57035 102.83819 33045 ft 506 kts 141°
2026-05-04 19:15 1.54279 102.85995 33344 ft 505 kts 141°
2026-05-04 19:15 1.51521 102.88169 33628 ft 505 kts 141°
2026-05-04 19:15 1.48768 102.90341 33924 ft 504 kts 141°
2026-05-04 19:15 1.46016 102.92512 34247 ft 503 kts 141°
2026-05-04 19:16 1.43273 102.94675 34536 ft 502 kts 141°
2026-05-04 19:16 1.40533 102.96841 34802 ft 501 kts 140°
2026-05-04 19:16 1.38064 102.99283 35100 ft 499 kts 128°
2026-05-04 19:16 1.36050 103.02103 35340 ft 499 kts 123°
2026-05-04 19:17 1.34121 103.04979 35598 ft 498 kts 123°
2026-05-04 19:17 1.32207 103.07860 35893 ft 497 kts 123°
2026-05-04 19:17 1.30292 103.10736 36170 ft 496 kts 123°
2026-05-04 19:17 1.28372 103.13603 36423 ft 496 kts 123°
2026-05-04 19:18 1.26449 103.16474 36671 ft 496 kts 123°
2026-05-04 19:18 1.24545 103.19331 37083 ft 491 kts 123°
2026-05-04 19:18 1.22660 103.22155 37517 ft 486 kts 123°
2026-05-04 19:18 1.20783 103.24961 37773 ft 485 kts 123°
2026-05-04 19:19 1.18908 103.27768 37981 ft 485 kts 123°
2026-05-04 19:19 1.17033 103.30575 38185 ft 485 kts 123°
2026-05-04 19:19 1.15188 103.33337 38377 ft 485 kts 123°
2026-05-04 19:19 1.13311 103.36146 38573 ft 485 kts 123°
2026-05-04 19:20 1.11441 103.38945 38769 ft 485 kts 123°
2026-05-04 19:20 1.09568 103.41747 38879 ft 487 kts 123°
2026-05-04 19:20 1.07682 103.44571 38874 ft 489 kts 123°
2026-05-04 19:21 1.03839 103.50129 38886 ft 484 kts 131°
2026-05-04 19:21 0.99175 103.54997 38885 ft 486 kts 133°
2026-05-04 19:22 0.94470 103.59845 38886 ft 486 kts 133°
2026-05-04 19:22 0.89771 103.64709 38886 ft 486 kts 133°
2026-05-04 19:23 0.85061 103.69570 38877 ft 486 kts 133°
2026-05-04 19:23 0.80366 103.74424 38876 ft 485 kts 133°
2026-05-04 19:24 0.75674 103.79269 38873 ft 485 kts 133°
2026-05-04 19:24 0.70994 103.84103 38873 ft 484 kts 133°
2026-05-04 19:25 0.66346 103.88909 38870 ft 484 kts 133°
2026-05-04 19:25 0.61660 103.93744 38869 ft 485 kts 133°
2026-05-04 19:26 0.56969 103.98593 38869 ft 484 kts 133°
2026-05-04 19:26 0.52284 104.03429 38872 ft 484 kts 133°
2026-05-04 19:27 0.47600 104.08265 38878 ft 484 kts 133°
2026-05-04 19:27 0.42925 104.13092 38885 ft 483 kts 133°
2026-05-04 19:28 0.38251 104.17915 38883 ft 483 kts 133°
2026-05-04 19:28 0.33580 104.22737 38882 ft 483 kts 133°
2026-05-04 19:29 0.28913 104.27556 38879 ft 483 kts 133°
2026-05-04 19:29 0.24252 104.32370 38880 ft 482 kts 133°
2026-05-04 19:30 0.19580 104.37193 38881 ft 483 kts 133°
2026-05-04 19:30 0.14897 104.42030 38884 ft 484 kts 133°
2026-05-04 19:31 0.10239 104.46838 38886 ft 484 kts 133°
2026-05-04 19:31 0.05557 104.51672 38887 ft 485 kts 133°
2026-05-04 19:32 0.00872 104.56509 38886 ft 484 kts 133°
2026-05-04 19:32 -0.03810 104.61343 38887 ft 484 kts 133°
2026-05-04 19:33 -0.08496 104.66185 38887 ft 485 kts 133°
2026-05-04 19:33 -0.13189 104.71027 38889 ft 486 kts 133°
2026-05-04 19:34 -0.17891 104.75883 38893 ft 487 kts 133°
2026-05-04 19:34 -0.22604 104.80750 38887 ft 487 kts 133°
2026-05-04 19:35 -0.27305 104.85599 38885 ft 484 kts 135°
2026-05-04 19:35 -0.32687 104.89630 38890 ft 485 kts 145°
2026-05-04 19:36 -0.38307 104.93404 38890 ft 487 kts 145°
2026-05-04 19:36 -0.43899 104.97202 38888 ft 486 kts 145°
2026-05-04 19:37 -0.49460 105.00958 38888 ft 485 kts 145°
2026-05-04 19:37 -0.55053 105.04746 38888 ft 485 kts 145°
2026-05-04 19:38 -0.60643 105.08527 38887 ft 485 kts 145°
2026-05-04 19:38 -0.66225 105.12305 38886 ft 484 kts 145°
2026-05-04 19:39 -0.71806 105.16080 38887 ft 485 kts 145°
2026-05-04 19:39 -0.77406 105.19870 38890 ft 487 kts 145°
2026-05-04 19:40 -0.82076 105.23030 38891 ft 488 kts 145°
2026-05-04 19:40 -0.87694 105.26833 38888 ft 487 kts 145°
2026-05-04 19:41 -0.93294 105.30623 38885 ft 486 kts 145°
2026-05-04 19:41 -0.98930 105.34437 38875 ft 486 kts 145°
2026-05-04 19:42 -1.04493 105.38203 38875 ft 486 kts 145°
2026-05-04 19:42 -1.10094 105.41993 38874 ft 486 kts 145°
2026-05-04 19:43 -1.15697 105.45786 38875 ft 486 kts 145°
2026-05-04 19:43 -1.21574 105.49092 38899 ft 487 kts 161°
2026-05-04 19:44 -1.28110 105.50935 38880 ft 488 kts 164°
2026-05-04 19:44 -1.34570 105.52979 38880 ft 486 kts 161°
2026-05-04 19:45 -1.41031 105.54979 38877 ft 486 kts 163°
2026-05-04 19:45 -1.47482 105.56971 38878 ft 485 kts 161°
2026-05-04 19:46 -1.53923 105.58981 38881 ft 486 kts 162°
2026-05-04 19:46 -1.60396 105.60979 38879 ft 487 kts 162°
2026-05-04 19:47 -1.66867 105.62994 38879 ft 487 kts 162°
2026-05-04 19:47 -1.73350 105.65001 38880 ft 487 kts 162°
2026-05-04 19:48 -1.79781 105.67000 38880 ft 486 kts 162°
2026-05-04 19:48 -1.86255 105.69006 38880 ft 486 kts 162°
2026-05-04 19:49 -1.92711 105.71011 38875 ft 486 kts 162°
2026-05-04 19:49 -1.99159 105.73012 38862 ft 485 kts 162°
2026-05-04 19:50 -2.05611 105.75014 38863 ft 486 kts 162°
2026-05-04 19:50 -2.12073 105.77020 38865 ft 486 kts 162°
2026-05-04 19:51 -2.18531 105.79025 38868 ft 486 kts 162°
2026-05-04 19:51 -2.24993 105.81031 38866 ft 486 kts 162°
2026-05-04 19:52 -2.31449 105.83036 38866 ft 486 kts 162°
2026-05-04 19:52 -2.37910 105.85042 38865 ft 486 kts 162°
2026-05-04 19:53 -2.44362 105.87046 38864 ft 485 kts 162°
2026-05-04 19:53 -2.50768 105.89036 38863 ft 485 kts 162°
2026-05-04 19:54 -2.57214 105.91038 38862 ft 485 kts 162°
2026-05-04 19:54 -2.63656 105.93039 38861 ft 485 kts 162°
2026-05-04 19:55 -2.70094 105.95040 38861 ft 485 kts 162°
2026-05-04 19:55 -2.76557 105.97048 38863 ft 486 kts 162°
2026-05-04 19:56 -2.83027 105.99058 38873 ft 487 kts 162°
2026-05-04 19:56 -2.89511 106.01073 38868 ft 488 kts 162°
2026-05-04 19:57 -2.95988 106.03087 38866 ft 486 kts 162°
2026-05-04 19:57 -3.02442 106.05093 38861 ft 485 kts 162°
2026-05-04 19:58 -3.08878 106.07094 38863 ft 485 kts 162°
2026-05-04 19:58 -3.15330 106.09100 38868 ft 487 kts 162°
2026-05-04 19:59 -3.21809 106.11115 38871 ft 488 kts 162°
2026-05-04 19:59 -3.28245 106.13117 38874 ft 487 kts 162°
2026-05-04 20:00 -3.34719 106.15131 38875 ft 487 kts 162°
2026-05-04 20:00 -3.41195 106.17146 38873 ft 487 kts 162°
2026-05-04 20:01 -3.47667 106.19159 38874 ft 487 kts 162°
2026-05-04 20:01 -3.54140 106.21174 38872 ft 487 kts 162°
2026-05-04 20:02 -3.60606 106.23186 38874 ft 487 kts 162°
2026-05-04 20:02 -3.63805 106.24182 38857 ft 475 kts 162°
2026-05-04 20:02 -3.66930 106.25154 38857 ft 468 kts 162°
2026-05-04 20:03 -3.73212 106.27112 38867 ft 478 kts 162°
2026-05-04 20:03 -3.79625 106.29107 38883 ft 486 kts 162°
2026-05-04 20:04 -3.86104 106.31126 38890 ft 487 kts 162°
2026-05-04 20:04 -3.92582 106.33143 38890 ft 487 kts 162°
2026-05-04 20:05 -3.99019 106.35149 38890 ft 487 kts 162°
2026-05-04 20:05 -4.05477 106.37162 38455 ft 486 kts 162°
2026-05-04 20:05 -4.08705 106.38167 38022 ft 487 kts 162°
2026-05-04 20:06 -4.11940 106.39175 37619 ft 487 kts 162°
2026-05-04 20:06 -4.15172 106.40182 37213 ft 487 kts 162°
2026-05-04 20:06 -4.18409 106.41192 36797 ft 487 kts 162°
2026-05-04 20:06 -4.21646 106.42201 36376 ft 487 kts 162°
2026-05-04 20:07 -4.24887 106.43211 35881 ft 489 kts 162°
2026-05-04 20:07 -4.28153 106.44229 35180 ft 495 kts 162°
2026-05-04 20:07 -4.31463 106.45262 34505 ft 500 kts 162°
2026-05-04 20:07 -4.34789 106.46298 33971 ft 502 kts 162°
2026-05-04 20:08 -4.38126 106.47339 33448 ft 503 kts 162°
2026-05-04 20:08 -4.41471 106.48382 32711 ft 505 kts 162°
2026-05-04 20:08 -4.44822 106.49428 31845 ft 504 kts 162°
2026-05-04 20:08 -4.48168 106.50471 30950 ft 503 kts 162°
2026-05-04 20:09 -4.51512 106.51515 30031 ft 502 kts 162°
2026-05-04 20:09 -4.54846 106.52556 29070 ft 502 kts 162°
2026-05-04 20:09 -4.58172 106.53593 28128 ft 499 kts 162°
2026-05-04 20:09 -4.61443 106.54613 27212 ft 496 kts 162°
2026-05-04 20:10 -4.64723 106.55636 26299 ft 492 kts 162°
2026-05-04 20:10 -4.67978 106.56653 25396 ft 488 kts 162°
2026-05-04 20:10 -4.71205 106.57661 24604 ft 482 kts 162°
2026-05-04 20:10 -4.74366 106.58648 24182 ft 468 kts 162°
2026-05-04 20:11 -4.77416 106.59598 24034 ft 448 kts 162°
2026-05-04 20:11 -4.80335 106.60510 23896 ft 431 kts 161°
2026-05-04 20:11 -4.83135 106.61385 23758 ft 414 kts 161°
2026-05-04 20:11 -4.85835 106.62236 23395 ft 403 kts 159°
2026-05-04 20:12 -4.88366 106.63355 22929 ft 394 kts 154°
2026-05-04 20:12 -4.90850 106.64483 22419 ft 390 kts 155°
2026-05-04 20:12 -4.93311 106.65588 21902 ft 387 kts 154°
2026-05-04 20:12 -4.95740 106.66704 21389 ft 381 kts 154°
2026-05-04 20:13 -4.98138 106.67802 20890 ft 378 kts 154°
2026-05-04 20:13 -5.00517 106.68888 20406 ft 374 kts 154°
2026-05-04 20:13 -5.02875 106.69965 19916 ft 371 kts 154°
2026-05-04 20:13 -5.05214 106.71035 19423 ft 368 kts 154°
2026-05-04 20:14 -5.07540 106.72098 18936 ft 366 kts 154°
2026-05-04 20:14 -5.09815 106.73137 18472 ft 363 kts 154°
2026-05-04 20:14 -5.12103 106.74183 17975 ft 361 kts 154°
2026-05-04 20:14 -5.14410 106.75238 17493 ft 358 kts 154°
2026-05-04 20:15 -5.16636 106.76255 17024 ft 355 kts 154°
2026-05-04 20:15 -5.18881 106.77281 16344 ft 357 kts 155°
2026-05-04 20:15 -5.21159 106.78311 15694 ft 357 kts 155°
2026-05-04 20:15 -5.23401 106.79321 15248 ft 350 kts 155°
2026-05-04 20:16 -5.25605 106.80319 14839 ft 344 kts 155°
2026-05-04 20:16 -5.27773 106.81302 14452 ft 341 kts 155°
2026-05-04 20:16 -5.29933 106.82282 14086 ft 339 kts 155°
2026-05-04 20:16 -5.32071 106.83249 13787 ft 338 kts 155°
2026-05-04 20:17 -5.34220 106.84222 13409 ft 338 kts 155°
2026-05-04 20:17 -5.36360 106.85193 13018 ft 337 kts 155°
2026-05-04 20:17 -5.38487 106.86157 12636 ft 334 kts 155°
2026-05-04 20:17 -5.40570 106.87100 12234 ft 316 kts 155°
2026-05-04 20:18 -5.42533 106.87989 11887 ft 306 kts 155°
2026-05-04 20:18 -5.44450 106.88858 11538 ft 299 kts 155°
2026-05-04 20:18 -5.46327 106.89707 11183 ft 292 kts 156°
2026-05-04 20:18 -5.48274 106.90145 10865 ft 288 kts 180°
2026-05-04 20:19 -5.50282 106.90112 10529 ft 289 kts 180°
2026-05-04 20:19 -5.52292 106.90098 10194 ft 288 kts 180°
2026-05-04 20:19 -5.54294 106.90068 9864 ft 287 kts 180°
2026-05-04 20:19 -5.56287 106.90034 9537 ft 285 kts 180°
2026-05-04 20:20 -5.58266 106.90004 9208 ft 284 kts 180°
2026-05-04 20:20 -5.60233 106.89976 8883 ft 281 kts 180°
2026-05-04 20:20 -5.62187 106.89948 8553 ft 280 kts 180°
2026-05-04 20:20 -5.64130 106.89919 8240 ft 279 kts 180°
2026-05-04 20:21 -5.66068 106.89891 7920 ft 278 kts 180°
2026-05-04 20:21 -5.67996 106.89862 7601 ft 276 kts 180°
2026-05-04 20:21 -5.71815 106.89805 6970 ft 272 kts 180°
2026-05-04 20:22 -5.73704 106.89771 6660 ft 272 kts 180°
2026-05-04 20:22 -5.75588 106.89729 6346 ft 270 kts 180°
2026-05-04 20:22 -5.77434 106.89687 6042 ft 268 kts 180°
2026-05-04 20:22 -5.79298 106.89649 5729 ft 267 kts 180°
2026-05-04 20:23 -5.81151 106.89610 5416 ft 265 kts 180°
2026-05-04 20:23 -5.82965 106.89570 5125 ft 257 kts 180°
2026-05-04 20:23 -5.84729 106.89533 4832 ft 250 kts 180°
2026-05-04 20:23 -5.86445 106.89498 4577 ft 241 kts 180°
2026-05-04 20:24 -5.88086 106.89463 4306 ft 231 kts 180°
2026-05-04 20:24 -5.89675 106.89429 4079 ft 225 kts 180°
2026-05-04 20:24 -5.91241 106.89397 3938 ft 227 kts 180°
2026-05-04 20:24 -5.92818 106.89364 3796 ft 226 kts 180°
2026-05-04 20:25 -5.94367 106.89332 3636 ft 220 kts 180°
2026-05-04 20:25 -5.95880 106.89208 3468 ft 218 kts 195°
2026-05-04 20:25 -5.97159 106.88392 3283 ft 219 kts 219°
2026-05-04 20:25 -5.98314 106.87397 3134 ft 218 kts 220°
2026-05-04 20:26 -5.99447 106.86389 2992 ft 214 kts 220°
2026-05-04 20:26 -6.00545 106.85435 2835 ft 204 kts 219°
2026-05-04 20:26 -6.01250 106.84828 2752 ft 199 kts 219°
2026-05-04 20:26 -6.02294 106.83925 2638 ft 197 kts 219°
2026-05-04 20:27 -6.03331 106.83028 2528 ft 196 kts 219°
2026-05-04 20:27 -6.04251 106.82024 2398 ft 197 kts 233°
2026-05-04 20:27 -6.04873 106.80799 2276 ft 197 kts 246°
2026-05-04 20:27 -6.05387 106.79561 2165 ft 186 kts 247°
2026-05-04 20:28 -6.05863 106.78370 2066 ft 179 kts 247°
2026-05-04 20:28 -6.06304 106.77261 1991 ft 164 kts 247°
2026-05-04 20:28 -6.06726 106.76198 1935 ft 168 kts 247°
2026-05-04 20:28 -6.07157 106.75115 1726 ft 164 kts 247°
2026-05-04 20:29 -6.07578 106.74048 1511 ft 164 kts 248°
2026-05-04 20:29 -6.07995 106.72987 1303 ft 162 kts 247°
2026-05-04 20:29 -6.08404 106.71938 1091 ft 160 kts 248°
2026-05-04 20:29 -6.08822 106.70896 871 ft 160 kts 247°
2026-05-04 20:30 -6.09236 106.69856 679 ft 157 kts 247°
2026-05-04 20:30 -6.09639 106.68832 465 ft 160 kts 248°
2026-05-04 20:30 -6.10052 106.67800 240 ft 159 kts 248°
2026-05-04 20:30 -6.10463 106.66776 60 ft 156 kts 247°
2026-05-04 20:31 -6.10806 106.65917 47 ft 100 kts 248°
2026-05-04 20:31 -6.10992 106.65451 47 ft 55 kts 248°
2026-05-04 20:31 -6.11108 106.65161 45 ft 40 kts 248°
2026-05-04 20:31 -6.11207 106.64915 47 ft 33 kts 246°
2026-05-04 20:32 -6.11313 106.64792 47 ft 25 kts 217°
2026-05-04 20:32 -6.11446 106.64713 45 ft 18 kts 182°
2026-05-04 20:32 -6.11562 106.64753 45 ft 18 kts 157°
2026-05-04 20:32 -6.11674 106.64793 48 ft 16 kts 163°
2026-05-04 20:33 -6.11763 106.64764 48 ft 14 kts 221°
2026-05-04 20:33 -6.11853 106.64682 47 ft 19 kts 219°
2026-05-04 20:33 -6.11964 106.64653 44 ft 15 kts 156°
2026-05-04 20:33 -6.12066 106.64695 44 ft 16 kts 159°
2026-05-04 20:34 -6.12175 106.64738 42 ft 17 kts 155°
2026-05-04 20:34 -6.12197 106.64808 44 ft 9 kts 71°
2026-05-04 20:34 -6.12192 106.64869 44 ft 7 kts 119°
2026-05-04 20:34 -6.12228 106.64898 44 ft 7 kts 143°
2026-05-04 20:35 -6.12239 106.64906 44 ft 0 kts 143°